Regional Weather Roundup
Issued by NWS New Orleans/Baton Rouge, LA

Home | Current Version | Previous Version | Text Only | Print | Product List | Glossary On
Versions: 1 2 3 4 5 6 7 8 9 10 11 12 13 14 15 16 17 18 19 20 21 22 23 24 25 26 27 28 29 30 31 32 33 34 35 36 37 38 39 40 41 42 43 44 45 46 47 48 49 50
000
ASUS44 KLIX 300311
RWRLIX
NEW ORLEANS REGIONAL WEATHER ROUNDUP
NATIONAL WEATHER SERVICE NEW ORLEANS LA
1000 PM CDT THU SEP 29 2016

NOTE: "FAIR" INDICATES FEW OR NO CLOUDS BELOW 12,000 FEET WITH NO
      SIGNIFICANT WEATHER AND/OR OBSTRUCTIONS TO VISIBILITY.
      SKY/WX - SKY CONDITION AND SIGNIFICANT WEATHER.
      TMP - AIR TEMPERATURE.     DP    - DEWPOINT TEMPERATURE.
      RH  - RELATIVE HUMIDITY.   PRES  - PRESSURE.
      HI  - HEAT INDEX.          WCI   - WIND CHILL INDEX.

*  THESE STATIONS ARE NOT NWS OR FAA STATIONS AND ARE NOT UNDER
   NWS QUALITY CONTROL.

LAZ038-040-048-061>063-065>067-069-300400-
SOUTHEAST LOUISIANA

CITY           SKY/WX    TMP DP  RH WIND       PRES   REMARKS
N.O. AUDUBON     N/A     24  13  62 MISG        N/A
N.O. INTL ARPT CLEAR     76  53  44 N15       30.11R
N.O. LAKEFRONT CLEAR     76  55  48 N21       30.11R
N.O. DOWNTOWN*   N/A     76  52  43 N9G17     30.11R
RESERVE*         N/A     69  56  62 N7        30.12R
SLIDELL        CLEAR     65  56  72 N3        30.10R
BATON ROUGE    CLEAR     65  53  65 N5        30.14R
BOOTHVILLE     PTCLDY    79  63  57 N8G22     30.08R
BELLE CHASSE   PTCLDY    72  55  55 NE6       30.10
BOGALUSA*        N/A     62  53  73 N3        30.13S
GALLIANO*      CLOUDY    74  56  53 N9        30.09R
NEW ROADS*       N/A     61  55  78 MISG      30.15R
GONZALES*        N/A     65  56  71 N5        30.12R
HAMMOND*       CLEAR     61  54  77 N5        30.13R
HOUMA*         PTCLDY    70  60  69 N9        30.11R
PORT FOURCHON* MOCLDY    79  63  57 N14       30.08R

$$

MSZ070-080>082-300400-
SOUTHERN MISSISSIPPI

CITY           SKY/WX    TMP DP  RH WIND       PRES   REMARKS
MCCOMB         CLEAR     61  53  75 NW3       30.15R
GULFPORT       CLEAR     67  56  67 NW6       30.09R
BILOXI         CLEAR     70  55  58 N8        30.09R
PASCAGOULA     CLEAR     64  57  78 N3        30.09R

$$

COASTAL OBSERVATIONS
LAKE AND NEARSHORE STATIONS

STATION/POSITION TIME  TEMP    WIND        PRES    WAVE
                       AIR SEA DIR/SP/G            HT/PER
                 (UTC) (F)     (DEG/KT/KT) (MB)    (FT/S)
PASCAGOULA       0200   73     350/  8/ 10 1017.9
WAVELAND YACHT   0200   74 82  350/ 15/ 17 1018.9
GRAND ISLE       0200   80 87   20/ 15/ 20 1018.2
SOUTHWEST PASS   0200          360/ 14/ 16   N/A
NEW CANAL        0200   78 85   10/ 19/ 23 1018.0
SHELL BEACH      0200   78 85  360/ 18/ 21 1018.5

OFFSHORE STATIONS

STATION/POSITION TIME  TEMP    WIND        PRES    WAVE
                       AIR SEA DIR/SP/G            HT/PER
                 (UTC) (F)     (DEG/KT/KT) (MB)    (FT/S)
64 S DAUPHIN ISL 0200   81 85  330/ 10/ 14 1017.0

$$




USA.gov is the U.S. government's official web portal to all federal, state and local government web resources and services.